GW4987 Weather Reports


time (UTC)temp
C
wind
direction
speed
KPH
gust
KPH
rain 1hr
cm
rain 24hr
cm
rain mn
cm
humidity
%
barometer
mb
20260903231004 26 212 16.1 17.7 0.00 0.00 0.00 40 1019.4
20260903230504 26 136 16.1 29.0 0.00 0.00 0.00 41 1019.4
20260903230004 25 179 14.5 27.4 0.00 0.00 0.00 43 1019.6
20260903225504 25 180 17.7 25.7 0.00 0.00 0.00 44 1019.7
20260903225003 25 220 16.1 27.4 0.00 0.00 0.00 43 1019.6
20260903224503 24 214 12.9 16.1 0.00 0.00 0.00 44 1019.7
20260903224004 24 207 12.9 38.6 0.00 0.00 0.00 44 1019.7
20260903223503 25 238 14.5 19.3 0.00 0.00 0.00 44 1019.8
20260903223004 24 191 17.7 33.8 0.00 0.00 0.00 45 1019.9
20260903222503 24 177 9.7 30.6 0.00 0.00 0.00 45 1019.8
20260903222003 25 203 22.5 30.6 0.00 0.00 0.00 44 1019.8
20260903221504 25 194 11.3 30.6 0.00 0.00 0.00 45 1019.9
20260903221003 24 211 12.9 25.7 0.00 0.00 0.00 45 1020.0
20260903220503 25 167 9.7 30.6 0.00 0.00 0.00 43 1020.1
20260903220004 25 185 12.9 22.5 0.00 0.00 0.00 45 1020.1
20260903215504 25 184 11.3 25.7 0.00 0.00 0.00 45 1020.1
20260903215004 25 119 14.5 17.7 0.00 0.00 0.00 46 1020.2
20260903214504 26 136 30.6 37.0 0.00 0.00 0.00 43 1020.2
20260903212503 24 213 14.5 20.9 0.00 0.00 0.00 47 1020.3
20260903212003 25 168 12.9 32.2 0.00 0.00 0.00 43 1020.3
20260903211503 25 131 32.2 35.4 0.00 0.00 0.00 42 1020.4
20260903211003 24 155 16.1 22.5 0.00 0.00 0.00 45 1020.5
20260903210503 25 218 9.7 19.3 0.00 0.00 0.00 44 1020.2
20260903210004 25 225 17.7 32.2 0.00 0.00 0.00 45 1020.4
20260903205503 24 189 17.7 30.6 0.00 0.00 0.00 46 1020.5
20260903205003 24 209 29.0 46.7 0.00 0.00 0.00 44 1020.4
20260903204504 25 204 14.5 35.4 0.00 0.00 0.00 42 1020.4
20260903204004 25 248 20.9 37.0 0.00 0.00 0.00 41 1020.6
20260903203504 25 180 14.5 32.2 0.00 0.00 0.00 43 1020.4
20260903203004 24 186 16.1 40.2 0.00 0.00 0.00 44 1020.6
20260903202503 25 221 40.2 41.8 0.00 0.00 0.00 42 1020.5
20260903202003 25 185 20.9 35.4 0.00 0.00 0.00 41 1020.6
20260903201503 24 154 4.8 30.6 0.00 0.00 0.00 46 1020.6
20260903201003 24 210 11.3 35.4 0.00 0.00 0.00 45 1020.6
20260903200503 24 180 16.1 22.5 0.00 0.00 0.00 45 1020.5
20260903200003 25 228 3.2 16.1 0.00 0.00 0.00 44 1020.5
20260903195503 24 191 14.5 30.6 0.00 0.00 0.00 47 1020.7
20260903195004 24 180 17.7 33.8 0.00 0.00 0.00 46 1020.8
20260903194504 24 149 16.1 24.1 0.00 0.00 0.00 46 1020.7
20260903194003 25 162 11.3 24.1 0.00 0.00 0.00 45 1020.9
20260903193504 25 212 11.3 20.9 0.00 0.00 0.00 45 1020.9
20260903193004 23 234 17.7 30.6 0.00 0.00 0.00 47 1020.8
20260903192504 24 243 22.5 29.0 0.00 0.00 0.00 45 1020.8
20260903192004 25 193 12.9 32.2 0.00 0.00 0.00 43 1020.9
20260903190003 25 105 8.0 24.1 0.00 0.00 0.00 44 1021.1
20260903185503 24 145 12.9 27.4 0.00 0.00 0.00 44 1021.3
20260903185004 25 165 9.7 24.1 0.00 0.00 0.00 44 1021.4
20260903184504 25 146 9.7 14.5 0.00 0.00 0.00 44 1021.4
20260903184004 24 182 25.7 30.6 0.00 0.00 0.00 44 1021.6
20260903183504 24 231 27.4 38.6 0.00 0.00 0.00 44 1021.4
20260903181504 25 233 8.0 33.8 0.00 0.00 0.00 42 1021.7
20260903181004 24 200 19.3 35.4 0.00 0.00 0.00 42 1021.6
20260903180504 24 136 27.4 38.6 0.00 0.00 0.00 42 1021.7
20260903180003 25 117 14.5 22.5 0.00 0.00 0.00 41 1021.5
20260903175504 24 145 16.1 20.9 0.00 0.00 0.00 41 1021.8
20260903175003 24 126 4.8 32.2 0.00 0.00 0.00 42 1022.0
20260903174503 25 143 12.9 29.0 0.00 0.00 0.00 41 1021.8
20260903174004 23 171 11.3 20.9 0.00 0.00 0.00 42 1021.8
20260903173504 23 193 12.9 37.0 0.00 0.00 0.00 43 1021.9
20260903173004 23 205 19.3 33.8 0.00 0.00 0.00 43 1021.8
20260903172504 23 154 17.7 30.6 0.00 0.00 0.00 42 1021.8
20260903172004 23 153 12.9 32.2 0.00 0.00 0.00 44 1021.7
20260903171504 23 156 14.5 24.1 0.00 0.00 0.00 44 1021.8
20260903171004 23 207 24.1 38.6 0.00 0.00 0.00 44 1021.9
20260903170504 23 169 17.7 29.0 0.00 0.00 0.00 43 1021.8
20260903170004 24 199 19.3 20.9 0.00 0.00 0.00 42 1021.7
20260903165503 23 151 11.3 19.3 0.00 0.00 0.00 43 1021.7
20260903165003 23 191 9.7 25.7 0.00 0.00 0.00 44 1021.8
20260903164503 22 197 22.5 30.6 0.00 0.00 0.00 45 1021.9
20260903164004 22 185 25.7 37.0 0.00 0.00 0.00 45 1021.8
20260903163504 23 181 16.1 32.2 0.00 0.00 0.00 44 1021.6
20260903163004 22 207 9.7 27.4 0.00 0.00 0.00 45 1021.6
20260903162504 23 144 16.1 27.4 0.00 0.00 0.00 43 1021.7
20260903162004 23 139 9.7 16.1 0.00 0.00 0.00 44 1021.7
20260903161504 22 196 16.1 17.7 0.00 0.00 0.00 44 1021.7
20260903161003 22 228 16.1 22.5 0.00 0.00 0.00 44 1021.7
20260903160503 22 213 20.9 27.4 0.00 0.00 0.00 45 1021.6
20260903160005 22 190 12.9 19.3 0.00 0.00 0.00 44 1021.7
20260903154504 22 111 12.9 16.1 0.00 0.00 0.00 43 1021.8
20260903154004 22 139 14.5 25.7 0.00 0.00 0.00 44 1021.6
20260903153504 22 177 4.8 9.7 0.00 0.00 0.00 44 1021.6
20260903153004 22 124 4.8 4.8 0.00 0.00 0.00 45 1021.7
20260903152503 22 194 22.5 24.1 0.00 0.00 0.00 44 1021.8
20260903152004 21 127 12.9 14.5 0.00 0.00 0.00 45 1021.6
20260903151503 21 169 4.8 6.4 0.00 0.00 0.00 46 1021.5
20260903151003 21 169 4.8 6.4 0.00 0.00 0.00 46 1021.6
20260903150504 21 226 12.9 25.7 0.00 0.00 0.00 45 1021.6
20260903150004 21 179 11.3 24.1 0.00 0.00 0.00 46 1021.7
20260903145504 21 182 11.3 11.3 0.00 0.00 0.00 47 1021.6
20260903145004 21 163 8.0 8.0 0.00 0.00 0.00 46 1021.6
20260903144504 21 162 4.8 8.0 0.00 0.00 0.00 47 1021.7
20260903144004 20 172 16.1 27.4 0.00 0.00 0.00 48 1021.6
20260903143504 20 172 16.1 27.4 0.00 0.00 0.00 48 1021.6
20260903143004 20 172 16.1 27.4 0.00 0.00 0.00 48 1021.6
20260903142503 20 164 14.5 27.4 0.00 0.00 0.00 48 1021.5
20260903142004 18 196 8.0 11.3 0.00 0.00 0.00 53 1021.6
20260903141503 18 196 8.0 11.3 0.00 0.00 0.00 53 1021.6
20260903141003 18 196 8.0 11.3 0.00 0.00 0.00 53 1021.6
20260903140503 18 196 8.0 11.3 0.00 0.00 0.00 53 1021.5
20260903140003 18 196 8.0 11.3 0.00 0.00 0.00 53 1021.4
20260903135503 18 196 8.0 11.3 0.00 0.00 0.00 53 1021.4
20260903135004 18 196 8.0 11.3 0.00 0.00 0.00 53 1021.5
20260903133004 17 180 6.4 8.0 0.00 0.00 0.00 51 1021.1
20260903132504 17 180 6.4 8.0 0.00 0.00 0.00 51 1021.3
20260903132004 17 180 6.4 8.0 0.00 0.00 0.00 51 1021.1
20260903131504 17 180 6.4 8.0 0.00 0.00 0.00 51 1020.9
20260903131004 17 180 6.4 8.0 0.00 0.00 0.00 51 1020.8
20260903130504 17 180 6.4 8.0 0.00 0.00 0.00 51 1020.9
20260903130003 17 180 6.4 8.0 0.00 0.00 0.00 51 1020.9
20260903125503 17 186 3.2 4.8 0.00 0.00 0.00 46 1020.8
20260903125004 17 186 3.2 4.8 0.00 0.00 0.00 46 1020.7
20260903124503 17 186 3.2 4.8 0.00 0.00 0.00 46 1020.9
20260903124003 17 186 3.2 4.8 0.00 0.00 0.00 46 1020.8
20260903123504 17 186 3.2 4.8 0.00 0.00 0.00 46 1020.8
20260903123004 17 186 3.2 4.8 0.00 0.00 0.00 46 1020.9
20260903122504 17 186 3.2 4.8 0.00 0.00 0.00 46 1020.8
20260903122004 17 186 3.2 4.8 0.00 0.00 0.00 46 1020.9
20260903121504 17 148 3.2 4.8 0.00 0.00 0.00 45 1020.8
20260903121004 18 129 8.0 8.0 0.00 0.00 0.00 44 1020.8
20260903120504 18 206 6.4 6.4 0.00 0.00 0.00 46 1020.9
20260903120004 18 206 6.4 6.4 0.00 0.00 0.00 46 1020.8
20260903115503 18 206 6.4 6.4 0.00 0.00 0.00 46 1020.5
20260903113504 18 206 6.4 6.4 0.00 0.00 0.00 46 1020.9
20260903113004 18 206 6.4 6.4 0.00 0.00 0.00 46 1020.8
20260903111004 17 121 4.8 4.8 0.00 0.00 0.00 44 1020.7
20260903110504 17 121 4.8 4.8 0.00 0.00 0.00 44 1020.8
20260903110003 17 121 4.8 4.8 0.00 0.00 0.00 44 1020.7
20260903105504 17 121 4.8 4.8 0.00 0.00 0.00 44 1021.0
20260903105004 17 121 4.8 4.8 0.00 0.00 0.00 44 1020.9
20260903104504 17 121 4.8 4.8 0.00 0.00 0.00 44 1021.0
20260903104004 17 121 4.8 4.8 0.00 0.00 0.00 44 1021.0
20260903103504 17 121 4.8 4.8 0.00 0.00 0.00 44 1021.0
20260903103003 17 121 4.8 4.8 0.00 0.00 0.00 44 1021.0
20260903102503 17 121 4.8 4.8 0.00 0.00 0.00 44 1021.3
20260903102003 17 279 3.2 3.2 0.00 0.00 0.00 47 1021.0
20260903100504 19 192 4.8 11.3 0.00 0.00 0.00 41 1021.0
20260903100004 19 192 4.8 11.3 0.00 0.00 0.00 41 1020.9
20260903095504 18 184 8.0 11.3 0.00 0.00 0.00 42 1021.0
20260903092503 16 97 6.4 6.4 0.00 0.00 0.00 40 1021.6
20260903092004 16 97 6.4 6.4 0.00 0.00 0.00 40 1021.4
20260903091504 16 97 6.4 6.4 0.00 0.00 0.00 40 1021.3
20260903085503 16 97 6.4 6.4 0.00 0.00 0.00 40 1021.4
20260903085003 16 97 6.4 6.4 0.00 0.00 0.00 40 1021.1
20260903084503 16 97 6.4 6.4 0.00 0.00 0.00 40 1021.0
20260903084004 16 97 6.4 6.4 0.00 0.00 0.00 40 1021.1
20260903083503 16 97 6.4 6.4 0.00 0.00 0.00 40 1021.3
20260903083003 16 97 6.4 6.4 0.00 0.00 0.00 40 1021.4
20260903082503 18 269 4.8 4.8 0.00 0.00 0.00 32 1021.4
20260903082003 18 269 4.8 4.8 0.00 0.00 0.00 32 1021.4
20260903081504 18 269 4.8 4.8 0.00 0.00 0.00 32 1021.3
20260903081003 18 269 4.8 4.8 0.00 0.00 0.00 32 1021.4
20260903080503 18 269 4.8 4.8 0.00 0.00 0.00 32 1021.6
20260903080004 18 269 4.8 4.8 0.00 0.00 0.00 32 1021.6
20260903075503 18 269 4.8 4.8 0.00 0.00 0.00 32 1021.5
20260903075003 18 269 4.8 4.8 0.00 0.00 0.00 32 1021.7
20260903074503 18 269 4.8 4.8 0.00 0.00 0.00 32 1021.5
20260903074004 18 269 4.8 4.8 0.00 0.00 0.00 32 1021.7
20260903073504 18 269 4.8 4.8 0.00 0.00 0.00 32 1021.6
20260903073004 18 269 4.8 4.8 0.00 0.00 0.00 32 1021.8
20260903071003 19 232 6.4 6.4 0.00 0.00 0.00 33 1021.7
20260903070503 19 232 6.4 6.4 0.00 0.00 0.00 33 1021.6
20260903070004 19 232 6.4 6.4 0.00 0.00 0.00 33 1021.7
20260903065504 19 232 6.4 6.4 0.00 0.00 0.00 33 1021.8
20260903065004 19 232 6.4 6.4 0.00 0.00 0.00 33 1021.8
20260903064504 19 232 6.4 6.4 0.00 0.00 0.00 33 1021.7
20260903064003 19 232 6.4 6.4 0.00 0.00 0.00 33 1021.7
20260903063503 19 232 6.4 6.4 0.00 0.00 0.00 33 1021.8
20260903063003 19 232 6.4 6.4 0.00 0.00 0.00 33 1021.7
20260903061004 20 182 11.3 12.9 0.00 0.00 0.00 32 1021.9
20260903060504 20 182 11.3 12.9 0.00 0.00 0.00 32 1021.8
20260903060004 20 182 11.3 12.9 0.00 0.00 0.00 32 1021.7
20260903055504 20 182 11.3 12.9 0.00 0.00 0.00 32 1021.8
20260903055004 20 182 11.3 12.9 0.00 0.00 0.00 32 1021.7
20260903054503 20 182 11.3 12.9 0.00 0.00 0.00 32 1021.5
20260903054003 20 215 14.5 14.5 0.00 0.00 0.00 33 1021.6
20260903053504 20 179 11.3 16.1 0.00 0.00 0.00 34 1021.5
20260903053003 20 179 11.3 16.1 0.00 0.00 0.00 34 1021.4
20260903052503 20 179 11.3 16.1 0.00 0.00 0.00 34 1021.4
20260903052003 20 179 11.3 16.1 0.00 0.00 0.00 34 1021.5
20260903033004 22 213 16.1 19.3 0.00 0.00 0.00 36 1021.4
20260903032504 22 213 16.1 19.3 0.00 0.00 0.00 36 1021.4
20260903032004 22 213 16.1 19.3 0.00 0.00 0.00 36 1021.5
20260903031504 22 213 16.1 19.3 0.00 0.00 0.00 36 1021.1
20260903031003 22 213 16.1 19.3 0.00 0.00 0.00 36 1021.1
20260903030504 22 213 16.1 19.3 0.00 0.00 0.00 36 1021.0
20260903030004 22 213 16.1 19.3 0.00 0.00 0.00 36 1021.1
20260903025504 22 213 16.1 19.3 0.00 0.00 0.00 36 1021.0
20260903025004 22 213 16.1 19.3 0.00 0.00 0.00 36 1021.0
20260903024504 22 213 16.1 19.3 0.00 0.00 0.00 36 1020.8
20260903024004 22 200 12.9 14.5 0.00 0.00 0.00 37 1020.7
20260903023504 22 200 12.9 14.5 0.00 0.00 0.00 37 1020.7
20260903023003 22 200 12.9 14.5 0.00 0.00 0.00 37 1020.6
20260903022504 22 200 12.9 14.5 0.00 0.00 0.00 37 1020.9
20260903022004 22 200 12.9 14.5 0.00 0.00 0.00 37 1020.8
20260903021504 22 211 17.7 17.7 0.00 0.00 0.00 36 1020.8
20260903021004 23 200 17.7 22.5 0.00 0.00 0.00 36 1020.7
20260903020504 23 200 17.7 22.5 0.00 0.00 0.00 36 1020.8
20260903020004 23 200 17.7 22.5 0.00 0.00 0.00 36 1021.0
20260903015504 23 200 17.7 22.5 0.00 0.00 0.00 36 1020.8
20260903015004 23 226 12.9 30.6 0.00 0.00 0.00 36 1020.7
20260903014503 23 203 20.9 24.1 0.00 0.00 0.00 35 1020.7
20260903014003 23 203 20.9 24.1 0.00 0.00 0.00 35 1020.7
20260903013503 23 203 20.9 24.1 0.00 0.00 0.00 35 1020.8
20260903013003 24 204 20.9 27.4 0.00 0.00 0.00 34 1020.7
20260903012503 24 247 22.5 24.1 0.00 0.00 0.00 33 1020.6
20260903012003 24 247 22.5 24.1 0.00 0.00 0.00 33 1020.6
20260903011504 24 229 11.3 19.3 0.00 0.00 0.00 34 1020.9
20260903011004 25 211 14.5 16.1 0.00 0.00 0.00 34 1020.8
20260903010503 25 204 17.7 27.4 0.00 0.00 0.00 33 1020.9
20260903010004 25 217 20.9 30.6 0.00 0.00 0.00 34 1020.7
20260903005504 25 169 16.1 32.2 0.00 0.00 0.00 34 1020.8
20260903005003 25 176 12.9 24.1 0.00 0.00 0.00 34 1020.8
20260903004504 25 191 8.0 12.9 0.00 0.00 0.00 33 1020.6
20260903004004 25 204 12.9 33.8 0.00 0.00 0.00 33 1020.8
20260903003504 25 175 9.7 17.7 0.00 0.00 0.00 33 1020.8
20260903003003 25 207 27.4 37.0 0.00 0.00 0.00 34 1020.7
20260903002503 25 214 22.5 22.5 0.00 0.00 0.00 34 1020.7
20260903002003 25 210 14.5 24.1 0.00 0.00 0.00 34 1020.8
20260903001503 25 159 20.9 41.8 0.00 0.00 0.00 33 1021.0
20260903001004 26 217 11.3 16.1 0.00 0.00 0.00 34 1020.8
20260903000504 25 213 20.9 40.2 0.00 0.00 0.00 35 1020.7
20260903000005 25 221 11.3 35.4 0.00 0.00 0.00 35 1020.9
20260902235503 25 208 27.4 27.4 0.00 0.00 0.00 35 1020.7
20260902235003 25 218 19.3 30.6 0.00 0.00 0.00 35 1020.8
20260902234504 26 226 17.7 25.7 0.00 0.00 0.00 35 1021.1
20260902232504 25 232 9.7 17.7 0.00 0.00 0.00 37 1020.8
20260902232004 25 232 9.7 17.7 0.00 0.00 0.00 37 1021.1